Temperature
13 13 13 13 13 13 14 14 14 14 15 15 15 15 15 16 16 16 16 16 16 16 17 17 17 17 17 17 17 17 17 17 17 17 16 16 16 16
13 13 13 13 13 13 13 13 14 14 14 14 15 15 15 15 15 15 15 16 16 16 16 16 16 17 17 17 17 17 17 17 16 16 16 16 16 16
13 13 13 13 13 13 13 13 13 13 14 14 14 14 15 15 15 15 15 15 16 16 16 16 16 16 16 16 17 17 16 16 16 16 16 16 16 16
13 13 13 13 13 13 13 13 13 13 13 14 14 14 14 14 14 15 15 15 15 15 15 16 16 16 16 16 16 16 16 16 16 16 16 16 16 16
13 13 13 13 12 12 13 13 13 13 13 13 13 14 14 14 14 14 14 14 15 15 15 15 15 16 16 16 16 16 16 16 16 16 16 16 16 16
13 13 13 13 13 12 12 12 13 13 13 13 13 13 13 13 13 14 14 14 14 14 15 15 15 15 15 15 16 16 16 16 16 16 16 16 16 16
13 13 13 13 13 13 13 13 13 13 13 13 13 13 13 13 13 13 13 14 14 14 14 14 14 15 15 15 15 15 16 16 16 16 16 16 16 16
13 13 13 13 13 13 13 13 13 13 12 12 12 12 13 13 13 13 13 13 13 14 14 14 14 14 14 15 15 15 15 15 15 15 15 15 15 15
13 13 13 13 13 13 13 13 13 12 12 12 12 12 12 12 12 13 13 13 13 13 13 14 14 14 14 14 14 15 15 15 15 15 15 15 15 15
13 13 13 12 13 13 12 12 12 12 12 12 12 12 12 12 12 12 12 12 13 13 13 13 13 13 14 14 14 14 14 14 14 14 15 15 15 15
12 12 12 12 12 12 12 12 12 12 12 12 12 12 12 12 12 12 12 12 12 13 13 13 13 13 13 13 14 14 14 14 14 14 14 14 14 14
12 12 12 12 12 12 12 12 12 12 12 12 12 12 12 12 12 12 12 12 12 12 12 12 12 12 12 13 13 13 13 13 13 13 14 14 14 14
12 12 12 12 12 12 12 11 11 11 11 11 11 11 11 12 11 11 11 11 11 11 12 11 12 12 12 12 12 13 13 13 13 13 13 13 13 13
11 11 11 11 11 11 11 11 11 11 11 11 11 11 11 11 11 11 11 11 11 11 11 11 11 11 11 11 11 12 12 12 12 13 13 13 13 13
11 10 10 10 10 11 11 10 10 10 10 10 10 10 10 10 10 11 11 11 11 11 11 11 10 10 10 10 11 11 11 12 12 12 12 12 12 12
10 10 10 10 10 9 9 10 10 9 9 9 9 9 9 10 10 10 10 10 10 10 10 10 10 10 10 10 10 10 11 11 11 11 11 11 12 12
10 9 9 9 9 9 9 9 9 9 9 9 9 9 9 9 9 9 9 9 9 9 9 10 10 10 10 10 10 10 10 10 10 10 10 11 11 11
9 9 9 8 8 8 8 8 8 8 8 8 8 8 8 8 8 8 8 7 7 8 8 8 8 9 9 9 9 9 9 9 10 10 10 10 10 11
9 8 8 8 8 7 7 7 7 7 7 7 7 7 7 7 7 6 6 6 6 6 6 6 7 7 7 7 8 8 8 8 8 9 9 9 9 10
8 8 7 7 7 7 7 7 6 6 6 6 6 6 6 6 5 5 5 5 5 5 5 6 6 5 5 6 6 7 7 7 7 8 8 8 9 9
7 7 7 7 7 6 6 6 6 6 5 5 5 5 5 5 5 4 4 4 4 4 4 5 5 5 5 5 5 6 7 6 6 6 7 7 7 8
7 7 6 6 6 6 6 5 5 5 5 4 4 4 4 4 4 4 3 3 3 3 3 4 4 4 4 4 4 4 5 6 6 6 6 6 6 6
6 6 6 6 5 5 5 5 4 4 4 4 3 3 3 3 3 3 3 2 2 2 2 3 3 3 3 3 3 3 4 4 5 5 6 6 6 6
Wind_Speed
2 3 2 1 1 1 1 0 0 1 2 1 1 0 0 2 5 6 7 11 13 14 15 15 15 15 16 17 17 18 19 19 19 20 20 19 19 18
1 2 2 1 1 1 1 1 1 1 2 1 1 1 1 1 4 5 6 10 13 15 15 16 15 15 16 16 17 17 18 18 19 20 21 21 20 20
2 1 2 1 1 1 2 1 1 1 2 3 2 1 1 1 1 2 3 6 9 14 15 16 16 16 16 16 17 17 18 18 19 19 20 21 21 21
2 2 2 1 1 1 1 2 2 2 1 2 2 2 2 1 1 2 3 4 5 11 15 16 16 16 17 17 17 17 18 18 19 19 20 21 21 21
1 1 1 1 1 1 1 1 2 2 1 1 2 2 2 2 2 2 3 3 5 7 12 15 16 16 16 17 17 17 18 18 19 20 20 20 21 21
1 1 0 1 1 2 1 2 2 2 2 2 2 2 2 2 1 2 3 2 3 4 5 8 12 16 17 17 18 18 19 19 19 20 20 20 20 21
2 1 1 3 2 1 1 2 3 2 2 2 2 2 2 1 2 2 3 3 4 3 2 3 4 5 9 14 17 18 19 19 19 20 20 20 21 21
2 2 1 3 3 2 2 3 3 2 2 2 2 2 3 2 2 2 2 2 3 2 2 4 3 5 5 7 13 17 19 19 19 19 19 20 20 21
3 2 2 2 3 0 2 4 4 5 5 3 2 4 3 2 2 3 3 3 4 3 2 4 3 5 5 8 12 16 18 19 19 19 19 19 20 21
2 2 1 3 3 3 2 2 2 2 3 3 2 3 2 2 2 3 3 4 4 4 3 3 3 4 4 4 11 14 16 17 17 18 18 18 19 19
1 2 3 4 5 5 3 4 4 4 3 2 3 4 5 5 3 2 3 2 3 3 2 2 3 3 3 4 6 10 12 13 15 16 16 17 18 17
2 3 6 5 6 6 3 3 4 4 5 4 4 4 3 3 4 2 2 2 2 3 2 1 2 2 3 3 2 3 5 10 13 14 15 16 16 11
3 3 4 6 6 5 4 2 3 5 5 4 3 3 3 3 3 2 2 2 2 3 3 2 2 2 2 3 3 3 3 3 4 7 13 16 16 13
3 3 3 5 5 4 3 3 5 6 3 3 3 3 3 3 4 4 4 3 3 4 4 3 2 2 3 4 4 3 3 3 4 5 5 9 13 16
2 3 2 4 4 2 2 4 4 3 3 3 3 3 3 4 4 4 4 4 5 5 5 3 3 3 3 4 5 4 4 4 4 5 5 5 6 6
1 0 1 2 3 3 2 2 2 3 3 2 3 3 3 4 4 4 4 4 4 4 5 6 4 3 4 5 5 6 5 4 4 5 5 5 5 6
3 1 1 2 3 3 3 3 3 3 3 3 3 3 4 4 4 4 4 4 4 5 5 5 5 4 5 5 5 5 5 4 4 4 4 6 6 6
3 1 2 2 3 3 2 2 3 3 3 3 3 3 3 4 4 4 4 4 4 5 5 5 5 5 5 4 4 4 4 5 5 5 5 6 8 7
2 1 2 3 3 3 3 3 3 3 3 3 3 3 4 4 4 4 4 4 4 5 5 4 4 4 6 7 6 4 5 6 5 5 5 6 8 7
1 2 2 2 2 3 3 3 3 3 3 3 3 3 4 4 4 5 5 5 5 6 5 5 4 4 5 7 7 7 7 6 5 6 6 6 7 8
2 2 2 2 2 2 3 3 3 3 3 3 3 4 4 4 4 5 5 7 7 6 7 6 6 8 6 6 7 7 6 8 9 7 6 7 7 6
2 2 2 2 2 2 2 2 2 2 3 3 3 4 4 4 5 6 6 6 6 7 8 7 8 7 6 7 9 10 9 9 10 14 14 11 7 7
2 2 2 1 1 1 2 2 3 2 3 3 4 4 5 5 5 6 6 7 7 8 8 8 7 7 7 8 9 10 12 11 9 8 8 12 16 17
Wind_Direction
341 339 339 325 349 320 339 195 191 305 298 305 356 297 174 156 172 194 200 203 207 216 218 218 219 219 220 220 220 222 222 223 222 220 220 221 221 220
267 280 320 342 350 328 325 296 242 227 267 283 302 272 258 234 196 209 210 203 211 217 219 218 219 220 221 221 222 222 222 224 225 223 222 222 221 222
327 335 332 316 347 335 338 318 281 254 260 290 307 322 273 272 224 245 242 217 217 220 218 218 218 219 220 222 222 223 223 224 225 226 224 224 222 223
326 328 310 326 3 303 305 302 287 262 242 280 303 315 315 299 253 249 258 243 229 224 219 219 219 219 221 222 223 224 224 225 226 227 227 226 225 225
309 327 328 352 333 312 299 307 304 303 283 280 282 285 290 290 293 281 274 263 256 235 220 221 221 223 224 225 226 226 226 227 227 228 229 228 227 227
287 270 235 36 18 2 353 350 341 336 323 297 285 289 285 284 283 278 286 273 264 257 238 227 224 226 227 228 228 228 229 229 228 228 229 229 228 228
309 293 153 147 128 106 16 353 353 342 321 304 298 306 294 299 276 261 274 283 271 249 243 242 223 223 227 231 232 232 230 230 229 229 229 229 228 228
314 313 194 172 171 190 234 256 257 277 294 300 303 303 294 286 284 275 272 287 282 273 252 262 238 236 232 225 226 227 228 228 229 229 230 230 229 229
314 324 349 55 94 68 262 265 265 259 248 249 274 287 296 305 316 310 297 277 264 263 276 272 257 249 245 243 234 228 226 227 227 228 230 230 231 231
295 323 20 57 43 24 351 329 307 291 257 245 246 276 296 317 308 285 278 279 279 270 232 253 265 266 266 250 246 238 231 229 229 228 229 231 232 232
359 41 46 66 43 37 20 350 344 337 324 290 273 281 292 293 288 305 300 283 285 280 248 233 264 280 279 267 255 242 237 235 233 232 232 232 233 233
42 69 64 67 50 42 24 4 350 335 336 339 324 311 304 305 299 264 278 285 289 288 284 281 288 318 299 278 260 253 246 246 242 240 238 236 233 228
21 53 55 48 43 36 28 12 352 337 333 338 334 333 340 348 351 331 314 296 284 277 298 329 298 296 268 290 292 270 253 249 238 242 241 239 233 223
23 47 47 31 30 26 21 9 1 355 342 346 350 355 360 355 347 340 333 328 303 280 287 298 280 280 286 288 285 285 278 262 248 248 242 242 236 231
50 50 32 14 6 18 30 18 12 8 2 7 2 354 345 338 343 339 334 328 314 312 315 308 287 279 271 273 280 281 287 276 254 250 251 245 236 228
358 305 334 358 12 18 32 28 30 40 30 11 354 342 344 353 354 347 342 337 332 326 327 327 317 296 280 272 269 276 275 271 275 267 262 261 252 233
344 360 40 39 39 37 34 32 27 25 18 4 6 358 353 351 344 344 342 340 337 329 327 327 324 306 281 269 275 274 279 283 282 280 278 273 264 254
17 38 50 46 38 31 27 16 14 11 5 7 6 358 348 342 336 336 337 335 328 323 321 324 335 335 329 302 265 280 285 285 287 286 283 279 276 266
40 49 63 55 38 26 24 22 12 9 9 9 3 353 346 339 335 331 329 326 320 314 313 321 334 335 319 308 296 285 292 295 296 289 277 272 275 276
91 70 65 55 40 28 20 12 4 359 2 354 351 347 341 335 331 328 326 325 320 316 316 317 316 310 296 292 289 290 279 279 289 286 286 284 277 278
85 75 70 57 39 29 18 6 358 356 356 351 347 342 337 334 329 326 323 322 319 315 313 307 298 299 291 295 294 293 289 277 275 278 283 288 289 285
106 92 81 70 43 26 7 352 348 352 352 350 344 340 335 330 323 320 318 315 310 305 304 301 304 308 304 298 295 296 297 299 283 277 273 266 270 273
121 107 91 72 52 22 356 344 345 346 350 346 341 335 329 323 318 312 308 306 304 303 305 305 306 304 297 290 291 293 295 299 299 294 281 269 267 268
Height
1488 1488 1488 1489 1489 1490 1490 1491 1492 1491 1492 1492 1493 1494 1495 1496 1497 1499 1501 1502 1504 1506 1509 1511 1513 1516 1518 1521 1523 1525 1527 1530 1532 1534 1536 1537 1539 1541
1487 1487 1487 1487 1488 1488 1489 1489 1490 1491 1491 1491 1491 1492 1493 1494 1495 1496 1498 1499 1501 1503 1505 1507 1509 1511 1513 1516 1518 1520 1522 1525 1527 1529 1531 1533 1535 1536
1486 1486 1486 1486 1486 1487 1487 1487 1488 1489 1489 1489 1490 1490 1491 1491 1492 1493 1495 1496 1497 1499 1500 1502 1504 1506 1508 1511 1513 1515 1517 1519 1522 1524 1526 1528 1529 1531
1486 1485 1485 1485 1485 1485 1486 1486 1486 1487 1487 1487 1488 1488 1489 1489 1490 1491 1491 1492 1493 1495 1496 1498 1499 1501 1503 1505 1507 1509 1512 1514 1516 1518 1520 1522 1524 1526
1485 1484 1484 1484 1484 1484 1484 1484 1484 1485 1485 1485 1485 1486 1486 1487 1487 1488 1488 1489 1490 1491 1492 1493 1495 1496 1498 1500 1502 1504 1506 1508 1510 1512 1514 1516 1518 1519
1484 1483 1483 1483 1483 1483 1483 1483 1483 1483 1483 1483 1483 1484 1484 1484 1485 1485 1485 1485 1486 1487 1488 1489 1490 1491 1493 1494 1496 1498 1499 1501 1503 1505 1507 1509 1511 1512
1483 1483 1482 1482 1482 1481 1481 1481 1481 1481 1481 1481 1481 1482 1482 1482 1482 1482 1482 1482 1482 1483 1484 1485 1486 1486 1487 1489 1490 1491 1493 1495 1496 1498 1500 1502 1503 1505
1482 1482 1481 1481 1480 1480 1480 1480 1480 1480 1480 1480 1479 1479 1479 1480 1479 1479 1479 1479 1479 1480 1480 1480 1481 1481 1482 1483 1484 1486 1487 1488 1490 1491 1493 1495 1496 1498
1480 1480 1480 1480 1479 1479 1479 1478 1478 1478 1478 1478 1477 1477 1477 1477 1476 1476 1476 1476 1476 1476 1477 1476 1476 1477 1477 1478 1479 1480 1481 1482 1483 1485 1486 1487 1489 1490
1478 1478 1478 1478 1477 1477 1477 1477 1477 1477 1476 1476 1476 1475 1475 1474 1474 1473 1473 1473 1473 1473 1473 1472 1472 1472 1473 1473 1474 1474 1475 1476 1477 1478 1479 1480 1481 1482
1476 1476 1476 1476 1476 1476 1475 1475 1475 1475 1474 1474 1474 1473 1473 1472 1471 1470 1470 1469 1469 1469 1470 1469 1468 1468 1468 1468 1469 1469 1470 1470 1471 1471 1472 1473 1474 1475
1474 1474 1474 1474 1474 1473 1473 1473 1472 1472 1472 1471 1471 1471 1470 1469 1469 1468 1467 1466 1466 1465 1466 1466 1465 1465 1464 1463 1464 1464 1464 1464 1465 1465 1466 1466 1467 1467
1472 1472 1472 1471 1471 1471 1471 1470 1470 1470 1470 1469 1469 1468 1468 1467 1466 1465 1465 1464 1464 1463 1463 1463 1461 1461 1461 1459 1459 1459 1459 1459 1459 1459 1459 1460 1460 1460
1470 1470 1469 1469 1469 1468 1468 1468 1468 1468 1467 1467 1466 1466 1465 1464 1464 1463 1462 1462 1461 1460 1459 1459 1458 1457 1456 1455 1454 1454 1454 1454 1453 1453 1453 1453 1453 1454
1468 1468 1468 1467 1467 1466 1466 1466 1465 1465 1464 1464 1464 1463 1463 1462 1461 1460 1459 1458 1457 1456 1456 1455 1454 1453 1452 1451 1450 1449 1448 1448 1448 1448 1447 1447 1447 1447
1466 1466 1466 1465 1465 1464 1464 1464 1463 1463 1462 1462 1461 1461 1460 1459 1458 1456 1455 1454 1453 1452 1452 1451 1450 1449 1447 1446 1445 1444 1444 1443 1442 1442 1441 1440 1440 1440
1464 1464 1464 1464 1464 1463 1463 1462 1462 1461 1460 1460 1459 1458 1457 1456 1455 1454 1452 1451 1449 1448 1446 1446 1445 1444 1443 1441 1440 1439 1438 1437 1436 1436 1434 1433 1433 1433
1462 1462 1462 1462 1462 1462 1461 1460 1460 1459 1458 1457 1456 1455 1454 1453 1452 1450 1449 1448 1446 1445 1443 1442 1440 1437 1436 1436 1436 1434 1432 1431 1430 1429 1428 1426 1425 1425
1461 1461 1461 1461 1460 1460 1459 1459 1458 1457 1456 1455 1454 1453 1452 1450 1449 1447 1446 1445 1443 1441 1440 1438 1436 1434 1432 1429 1428 1430 1428 1425 1424 1422 1421 1420 1418 1417
1459 1459 1459 1459 1459 1458 1457 1457 1456 1455 1454 1453 1452 1450 1449 1448 1446 1444 1443 1441 1439 1437 1436 1434 1433 1431 1430 1427 1423 1422 1423 1421 1418 1416 1414 1413 1411 1410
1456 1457 1457 1457 1456 1456 1455 1454 1453 1452 1451 1450 1449 1447 1446 1445 1443 1441 1439 1437 1436 1433 1431 1429 1428 1427 1425 1422 1418 1415 1415 1415 1414 1411 1409 1406 1403 1401
1454 1454 1454 1454 1453 1453 1452 1451 1450 1449 1448 1447 1445 1444 1443 1441 1439 1437 1435 1433 1431 1429 1427 1424 1423 1421 1419 1416 1413 1409 1407 1406 1406 1405 1403 1402 1399 1395
1451 1451 1451 1450 1450 1449 1449 1448 1447 1446 1445 1443 1442 1440 1439 1437 1435 1433 1431 1428 1426 1423 1421 1418 1416 1415 1412 1410 1407 1404 1401 1399 1397 1395 1394 1394 1392 1390